Location: Bothell
(47.7630°N, 122.2040°W)
Time: 14:20:06
(UTC-07:00)

Amateur Radio Satellites - All Passes

Search period start: 02 September 2014 13:50
Search period end: 03 September 2014 13:50
Location: Bothell, 47.7630°N, 122.2040°W

Satellite Date Start Highest point End Downlink Frequencies (MHz)
Time Altitude Azimuth
UOSAT-12 02 Sep 13:52:17 13:57:03 77° 234° (SW) 14:01:43 437.025 FM, 437.400 FM
SO-50 02 Sep 13:52:50 13:53:38 10° 253° (WSW) 13:54:26 436.795 FM
Oscar 19 02 Sep 14:18:27 14:23:28 50° 261° (W) 14:28:32 437.125 CW, 437.150 USB
AO-Echo 02 Sep 14:21:46 14:26:45 87° 255° (WSW) 14:31:37 ?
Gurwin Techsat 1B 02 Sep 14:33:16 14:38:25 53° 69° (ENE) 14:43:35 435.225 FM
MaSat-1 02 Sep 14:44:38 14:49:00 28° 314° (NW) 14:53:24 437.345 MHz
ISS 02 Sep 14:45:19 14:48:39 64° 18° (NNE) 14:51:58 145.800 FM
Oscar 16 02 Sep 14:55:04 14:59:14 24° 267° (W) 15:03:27 437.025 USB, Beacon 2401.1428
ITAMSAT 1 02 Sep 14:57:49 15:02:48 48° 261° (W) 15:07:49 435.822 SSB
JAS-1B 02 Sep 14:58:30 15:08:06 66° 258° (WSW) 15:16:31 435.800 - 435.900 CW/SSB
Uribyol 2 02 Sep 15:07:16 15:12:03 38° 263° (W) 15:16:52 436.500 FM
Uosat F 02 Sep 15:16:17 15:20:05 22° 60° (ENE) 15:23:53 435.120 FM
TMSAT-1 02 Sep 15:22:38 15:27:56 82° 256° (WSW) 15:33:16 436.925 FM
AO-27 02 Sep 15:28:37 15:32:57 27° 266° (W) 15:37:18 436.795 MHz FM
RS-15 02 Sep 15:29:02 15:39:57 61° 42° (NE) 15:51:12 29.354 - 29.394 USB, Beacon 29.352 USB
AO-7 02 Sep 15:29:45 15:37:41 51° 60° (ENE) 15:45:36 29.400 - 29.500 MHz
Sapphire 02 Sep 15:33:02 15:35:26 13° 103° (ESE) 15:37:51 437.095 MHz 1200 baud AX-25 AFSK
UOSAT-12 02 Sep 15:34:53 15:36:23 11° 253° (WSW) 15:37:52 437.025 FM, 437.400 FM
PCSat 02 Sep 15:59:55 16:04:10 24° 109° (ESE) 16:08:27 145.825 MHz
AO-Echo 02 Sep 16:04:28 16:06:13 12° 273° (W) 16:07:57 ?
Gurwin Techsat 1B 02 Sep 16:14:27 16:18:42 24° 268° (W) 16:22:58 435.225 FM
ISS 02 Sep 16:22:15 16:25:14 30° 217° (SW) 16:28:11 145.800 FM
OPAL 02 Sep 16:45:17 16:48:58 19° 93° (E) 16:52:37 ?
Uosat F 02 Sep 16:53:34 16:58:29 58° 259° (WSW) 17:03:27 435.120 FM
JAS-1B 02 Sep 16:54:36 16:59:53 16° 277° (W) 17:04:52 435.800 - 435.900 CW/SSB
TMSAT-1 02 Sep 17:06:42 17:08:42 12° 274° (W) 17:10:42 436.925 FM
Sapphire 02 Sep 17:12:34 17:17:58 80° 121° (ESE) 17:23:25 437.095 MHz 1200 baud AX-25 AFSK
JAS-2 02 Sep 17:15:22 17:20:28 33° 65° (ENE) 17:25:13 435.800 - 435.900 CW/SSB, 435.910 FM
AO-7 02 Sep 17:22:43 17:30:35 45° 261° (W) 17:38:29 29.400 - 29.500 MHz
Hamsat 02 Sep 17:31:29 17:35:28 36° 69° (ENE) 17:39:29 145.90 MHz
RS-15 02 Sep 17:41:45 17:52:12 51° 247° (WSW) 18:03:04 29.354 - 29.394 USB, Beacon 29.352 USB
PCSat 02 Sep 17:41:49 17:47:11 62° 308° (NW) 17:52:35 145.825 MHz
OPAL 02 Sep 18:23:07 18:28:19 67° 291° (WNW) 18:33:29 ?
STRAND 1 02 Sep 18:35:30 18:37:22 12° 86° (E) 18:39:14 ?
Sapphire 02 Sep 18:57:37 19:02:01 25° 323° (NW) 19:06:27 437.095 MHz 1200 baud AX-25 AFSK
JAS-2 02 Sep 19:00:02 19:05:33 40° 262° (W) 19:10:38 435.800 - 435.900 CW/SSB, 435.910 FM
Hamsat 02 Sep 19:07:54 19:11:31 25° 267° (W) 19:15:10 145.90 MHz
SO-67 02 Sep 19:19:46 19:23:14 78° 76° (ENE) 19:26:43 435.3500 MHz FM
HO-68 02 Sep 19:25:21 19:30:40 23° 51° (NE) 19:36:00 435.675 MHz FM
PCSat 02 Sep 19:28:07 19:31:43 18° 331° (NNW) 19:35:20 145.825 MHz
OPAL 02 Sep 20:04:01 20:06:16 13° 310° (NW) 20:08:31 ?
STRAND 1 02 Sep 20:12:13 20:17:21 84° 104° (ESE) 20:22:28 ?
Sapphire 02 Sep 20:46:26 20:47:32 11° 348° (NNW) 20:48:37 437.095 MHz 1200 baud AX-25 AFSK
UKube-1 02 Sep 21:08:40 21:12:47 44° 69° (ENE) 21:16:55 145.840 MHz, 145.915 MHz
HO-68 02 Sep 21:10:23 21:17:32 89° 252° (WSW) 21:24:44 435.675 MHz FM
Oscar 11 02 Sep 21:11:34 21:15:23 31° 67° (ENE) 21:19:13 145.825 FM, Beacon 2401.500 USB
MaSat-1 02 Sep 21:21:15 21:25:34 34° 49° (NE) 21:29:23 437.345 MHz
Saudisat 1A 02 Sep 21:34:09 21:37:15 19° 113° (ESE) 21:40:22 436.775 MHz
FUNcube-1 02 Sep 21:46:44 21:50:22 28° 66° (ENE) 21:54:04 145.950 - 145.970 MHz USB
STRAND 1 02 Sep 21:52:46 21:55:54 17° 304° (WNW) 21:59:03 ?
Sapphire 02 Sep 22:31:54 22:33:39 11° 15° (NNE) 22:35:24 437.095 MHz 1200 baud AX-25 AFSK
KITSAT 1 02 Sep 22:35:47 22:42:44 33° 108° (ESE) 22:49:42 435.175 FM
UKube-1 02 Sep 22:45:54 22:49:12 21° 267° (W) 22:52:31 145.840 MHz, 145.915 MHz
Oscar 11 02 Sep 22:47:42 22:51:33 30° 265° (W) 22:55:26 145.825 FM, Beacon 2401.500 USB
MaSat-1 02 Sep 22:58:28 23:02:31 32° 252° (WSW) 23:06:04 437.345 MHz
PCSat 02 Sep 23:00:36 23:03:33 15° 24° (NNE) 23:06:30 145.825 MHz
HO-68 02 Sep 23:01:24 23:06:12 19° 272° (W) 23:11:03 435.675 MHz FM
Saudisat 1A 02 Sep 23:12:03 23:16:25 63° 311° (NW) 23:20:50 436.775 MHz
Oscar 10/S400 02 Sep 23:16:17 23:48:35 52° 186° (S) 07:37:50 145.825 - 145.975 CW/USB, Beacon 145.810 USB
FUNcube-1 02 Sep 23:22:55 23:26:42 32° 265° (W) 23:30:35 145.950 - 145.970 MHz USB
Sapphire 03 Sep 00:14:15 00:18:58 29° 40° (NE) 00:23:40 437.095 MHz 1200 baud AX-25 AFSK
AO-40 03 Sep 00:20:43 02:11:41 21° 213° (SSW) 05:22:45 Beacon 2401.320
KITSAT 1 03 Sep 00:29:32 00:37:36 70° 310° (NW) 00:45:43 435.175 FM
PCSat 03 Sep 00:43:12 00:48:25 44° 47° (NE) 00:53:36 145.825 MHz
Saudisat 1A 03 Sep 00:54:05 00:56:52 16° 333° (NNW) 00:59:40 436.775 MHz
Oscar 16 03 Sep 01:24:28 01:27:04 14° 87° (E) 01:29:39 437.025 USB, Beacon 2401.1428
Sapphire 03 Sep 01:57:26 02:02:49 63° 241° (WSW) 02:08:09 437.095 MHz 1200 baud AX-25 AFSK
AO-27 03 Sep 01:59:47 02:01:52 12° 86° (E) 02:03:57 436.795 MHz FM
AO-Echo 03 Sep 02:26:09 02:29:47 22° 92° (E) 02:33:26 ?
Oscar 19 03 Sep 02:26:27 02:31:28 45° 99° (E) 02:36:25 437.125 CW, 437.150 USB
PCSat 03 Sep 02:26:51 02:31:45 36° 247° (WSW) 02:36:38 145.825 MHz
KITSAT 1 03 Sep 02:27:48 02:34:32 28° 336° (NNW) 02:41:18 435.175 FM
SO-50 03 Sep 02:28:59 02:31:50 17° 111° (ESE) 02:34:43 436.795 FM
JAS-1B 03 Sep 02:42:28 02:48:12 30° 91° (E) 02:53:19 435.800 - 435.900 CW/SSB
Gurwin Techsat 1B 03 Sep 02:47:11 02:50:27 16° 88° (E) 02:53:41 435.225 FM
Oscar 16 03 Sep 03:01:54 03:07:09 88° 286° (WNW) 03:12:21 437.025 USB, Beacon 2401.1428
ITAMSAT 1 03 Sep 03:07:00 03:12:01 47° 99° (E) 03:17:00 435.822 SSB
Uribyol 2 03 Sep 03:15:57 03:21:06 59° 101° (ESE) 03:26:14 436.500 FM
TMSAT-1 03 Sep 03:35:20 03:40:02 31° 95° (E) 03:44:42 436.925 FM
AO-27 03 Sep 03:36:57 03:42:11 85° 105° (ESE) 03:47:23 436.795 MHz FM
OPAL 03 Sep 04:02:56 04:07:49 49° 66° (ENE) 04:12:48 ?
AO-Echo 03 Sep 04:04:20 04:08:51 48° 290° (WNW) 04:13:22 ?
Oscar 19 03 Sep 04:06:12 04:10:37 29° 297° (WNW) 04:15:00 437.125 CW, 437.150 USB
SO-50 03 Sep 04:07:20 04:11:50 73° 310° (NW) 04:16:28 436.795 FM
UOSAT-12 03 Sep 04:08:47 04:11:16 14° 109° (ESE) 04:13:45 437.025 FM, 437.400 FM
Saudisat 1A 03 Sep 04:17:40 04:19:55 14° 22° (NNE) 04:22:09 436.775 MHz
Gurwin Techsat 1B 03 Sep 04:25:42 04:31:02 78° 287° (WNW) 04:36:20 435.225 FM
KITSAT 1 03 Sep 04:27:08 04:33:01 21° 5° (N) 04:38:55 435.175 FM
JAS-1B 03 Sep 04:32:45 04:39:17 50° 295° (WNW) 04:44:58 435.800 - 435.900 CW/SSB
Oscar 16 03 Sep 04:42:47 04:45:46 16° 305° (NW) 04:48:45 437.025 USB, Beacon 2401.1428
ITAMSAT 1 03 Sep 04:46:56 04:51:18 28° 298° (WNW) 04:55:39 435.822 SSB
Uribyol 2 03 Sep 04:56:11 05:00:12 23° 300° (WNW) 05:04:12 436.500 FM
Uosat F 03 Sep 04:57:57 05:02:28 33° 96° (E) 05:06:58 435.120 FM
TMSAT-1 03 Sep 05:15:06 05:20:04 41° 293° (WNW) 05:25:00 436.925 FM
AO-27 03 Sep 05:17:49 05:21:02 17° 304° (NW) 05:24:16 436.795 MHz FM
AO-7 03 Sep 05:19:38 05:27:45 54° 102° (ESE) 05:35:47 29.400 - 29.500 MHz
OPAL 03 Sep 05:42:44 05:46:57 26° 264° (W) 05:51:14 ?
UOSAT-12 03 Sep 05:46:05 05:50:44 87° 308° (NW) 05:55:30 437.025 FM, 437.400 FM
SO-50 03 Sep 05:50:01 05:53:13 18° 332° (NNW) 05:56:29 436.795 FM
STRAND 1 03 Sep 05:53:44 05:57:54 26° 62° (ENE) 06:02:06 ?
Saudisat 1A 03 Sep 05:56:20 06:00:36 45° 45° (NE) 06:04:50 436.775 MHz
RS-15 03 Sep 06:01:13 06:08:32 21° 99° (E) 06:15:45 29.354 - 29.394 USB, Beacon 29.352 USB
JAS-2 03 Sep 06:04:51 06:08:39 19° 91° (E) 06:12:38 435.800 - 435.900 CW/SSB, 435.910 FM
Gurwin Techsat 1B 03 Sep 06:07:28 06:10:10 14° 306° (NW) 06:12:52 435.225 FM
KITSAT 1 03 Sep 06:23:45 06:31:07 36° 34° (NE) 06:38:27 435.175 FM
JAS-1B 03 Sep 06:26:10 06:28:03 11° 320° (NW) 06:29:52 435.800 - 435.900 CW/SSB
Uosat F 03 Sep 06:36:43 06:41:17 36° 295° (WNW) 06:45:49 435.120 FM
Hamsat 03 Sep 06:49:25 06:53:38 46° 98° (E) 06:57:46 145.90 MHz
AO-7 03 Sep 07:12:45 07:20:23 43° 303° (WNW) 07:28:00 29.400 - 29.500 MHz
UOSAT-12 03 Sep 07:28:00 07:31:34 21° 329° (NNW) 07:35:11 437.025 FM, 437.400 FM
STRAND 1 03 Sep 07:31:56 07:36:51 49° 260° (W) 07:41:48 ?
SO-50 03 Sep 07:35:29 07:35:41 10° 357° (N) 07:35:54 436.795 FM
Saudisat 1A 03 Sep 07:36:16 07:40:01 27° 244° (WSW) 07:43:44 436.775 MHz
JAS-2 03 Sep 07:49:01 07:54:13 64° 288° (WNW) 07:59:50 435.800 - 435.900 CW/SSB, 435.910 FM
RS-15 03 Sep 08:07:58 08:18:58 77° 122° (ESE) 08:29:52 29.354 - 29.394 USB, Beacon 29.352 USB
SO-67 03 Sep 08:13:10 08:16:36 57° 100° (E) 08:20:00 435.3500 MHz FM
KITSAT 1 03 Sep 08:19:13 08:27:19 79° 238° (WSW) 08:35:22 435.175 FM
Hamsat 03 Sep 08:26:01 08:29:18 21° 297° (WNW) 08:32:33 145.90 MHz
HO-68 03 Sep 08:36:37 08:40:03 14° 85° (E) 08:43:29 435.675 MHz FM
AO-7 03 Sep 09:07:31 09:11:03 14° 327° (NNW) 09:14:36 29.400 - 29.500 MHz
ISS 03 Sep 09:07:48 09:09:44 15° 136° (SE) 09:11:40 145.800 FM
UOSAT-12 03 Sep 09:12:35 09:13:32 11° 354° (N) 09:14:30 437.025 FM, 437.400 FM
SO-50 03 Sep 09:15:39 09:18:19 15° 22° (NNE) 09:21:00 436.795 FM
JAS-2 03 Sep 09:37:04 09:38:26 11° 308° (NW) 09:39:50 435.800 - 435.900 CW/SSB, 435.910 FM
SO-67 03 Sep 09:47:51 09:49:12 12° 298° (WNW) 09:50:33 435.3500 MHz FM
KITSAT 1 03 Sep 10:16:18 10:21:28 19° 259° (W) 10:26:37 435.175 FM
HO-68 03 Sep 10:21:52 10:29:03 71° 105° (ESE) 10:36:12 435.675 MHz FM
RS-15 03 Sep 10:21:54 10:32:16 45° 330° (NNW) 10:42:43 29.354 - 29.394 USB, Beacon 29.352 USB
UKube-1 03 Sep 10:29:26 10:33:41 50° 100° (E) 10:37:54 145.840 MHz, 145.915 MHz
Oscar 11 03 Sep 10:31:26 10:35:31 37° 97° (E) 10:39:34 145.825 FM, Beacon 2401.500 USB
ISS 03 Sep 10:42:41 10:46:00 76° 154° (SSE) 10:49:20 145.800 FM
UOSAT-12 03 Sep 10:53:27 10:55:48 13° 19° (NNE) 10:58:09 437.025 FM, 437.400 FM
SO-50 03 Sep 10:55:28 11:00:03 45° 44° (NE) 11:04:42 436.795 FM
FUNcube-1 03 Sep 11:07:54 11:12:11 39° 97° (E) 11:16:29 145.950 - 145.970 MHz USB
JAS-1B 03 Sep 11:44:15 11:48:02 14° 43° (NE) 11:51:36 435.800 - 435.900 CW/SSB
UKube-1 03 Sep 12:06:23 12:09:34 20° 298° (WNW) 12:12:43 145.840 MHz, 145.915 MHz
Oscar 11 03 Sep 12:07:56 12:11:33 26° 295° (WNW) 12:15:09 145.825 FM, Beacon 2401.500 USB
Oscar 19 03 Sep 12:10:12 12:13:13 16° 56° (NE) 12:16:15 437.125 CW, 437.150 USB
HO-68 03 Sep 12:10:18 12:16:13 29° 305° (NW) 12:22:09 435.675 MHz FM
ISS 03 Sep 12:19:42 12:22:54 43° 353° (N) 12:26:07 145.800 FM
UOSAT-12 03 Sep 12:32:50 12:37:17 38° 41° (NE) 12:41:40 437.025 FM, 437.400 FM
SO-50 03 Sep 12:36:17 12:40:31 32° 243° (WSW) 12:44:47 436.795 FM
RS-15 03 Sep 12:38:33 12:48:05 32° 3° (N) 12:57:47 29.354 - 29.394 USB, Beacon 29.352 USB
Oscar 16 03 Sep 12:44:03 12:48:27 29° 63° (ENE) 12:52:53 437.025 USB, Beacon 2401.1428
FUNcube-1 03 Sep 12:44:36 12:48:26 27° 295° (WNW) 12:52:17 145.950 - 145.970 MHz USB
MaSat-1 03 Sep 12:47:58 12:52:50 54° 113° (ESE) 12:57:52 437.345 MHz
ITAMSAT 1 03 Sep 12:51:35 12:54:48 17° 56° (NE) 12:58:00 435.822 SSB
Uribyol 2 03 Sep 12:59:51 13:03:33 20° 58° (ENE) 13:07:17 436.500 FM
AO-27 03 Sep 13:20:18 13:24:38 28° 62° (ENE) 13:29:00 436.795 MHz FM
TMSAT-1 03 Sep 13:23:41 13:25:38 12° 52° (NE) 13:27:36 436.925 FM
JAS-1B 03 Sep 13:28:01 13:36:51 47° 64° (ENE) 13:44:34 435.800 - 435.900 CW/SSB
